Ellsworth AFB, SD

9:44 AM MST on January 20, 2017 (GMT -0700)
Ellsworth Air Force Base

Weather History for KRCA - November, 2013

Change the Weather History Date:

Wednesday, November 6, 2013

  Actual Average Record
Temperature  
Mean Temperature 30 °F -  
Max Temperature 43 °F 46 °F 78 °F (2010)
Min Temperature 18 °F 26 °F 6 °F (2003)
Degree Days  
Heating Degree Days 34    
Moisture  
Dew Point 23 °F    
Average Humidity 72    
Maximum Humidity 85    
Minimum Humidity 51    
Precipitation  
Precipitation 0.00 in - - ()
Sea Level Pressure  
Sea Level Pressure 30.24 in    
Wind  
Wind Speed 5 mph (WNW)    
Max Wind Speed 15 mph    
Max Gust Speed -    
Visibility 10 miles    
Events Rain    
Averages and records for this station are not official NWS values.
T = Trace of Precipitation, MM = Missing Value Source: NWS Daily Summary

Daily Weather History Graph

Daily Weather History Graph

Search for Another Location

Airport or City:

Trip Planner

Search our weather history database for the weather conditions in past years. The results will help you decide how hot, cold, wet, or windy it might be!

Date:

Astronomy

Nov. 06, 2013 Rise Set
Actual Time 6:36 AM MST 4:35 PM MST
Civil Twilight 6:05 AM MST 5:05 PM MST
Nautical Twilight 5:31 AM MST 5:40 PM MST
Astronomical Twilight 4:57 AM MST 6:14 PM MST
Moon 9:56 AM MST (11/6) 7:39 PM MST (11/6)
Length of Visible Light 11h 00m
Length of Day
9h 59m
Waxing Crescent, 14% of the Moon is Illuminated
Nov 6
Waxing Crescent
Nov 9
First Quarter
Nov 17
Full
Nov 25
Last Quarter
Dec 2
New

Hourly Weather History & Observations

Time (MST) Temp. Windchill Dew Point Humidity Pressure Visibility Wind Dir Wind Speed Gust Speed Precip Events Conditions
12:58 AM 18.9 °F - 14.2 °F 82% 30.19 in 10.0 mi Variable 2.3 mph - N/A   Clear
1:58 AM 20.7 °F - 14.5 °F 77% 30.19 in 10.0 mi Variable 2.3 mph - N/A   Clear
2:58 AM 21.2 °F 14.9 °F 14.2 °F 74% 30.18 in 10.0 mi SW 4.6 mph - N/A   Clear
3:58 AM 19.9 °F 14.9 °F 13.3 °F 75% 30.18 in 10.0 mi WSW 3.5 mph - N/A   Clear
4:58 AM 19.9 °F 14.9 °F 13.3 °F 75% 30.19 in 10.0 mi West 3.5 mph - N/A   Clear
5:58 AM 21.2 °F 16.4 °F 13.8 °F 73% 30.17 in 10.0 mi WSW 3.5 mph - N/A   Clear
6:58 AM 20.8 °F 11.2 °F 14.4 °F 76% 30.19 in 10.0 mi West 8.1 mph - N/A   Scattered Clouds
7:58 AM 27.1 °F 23.2 °F 18.9 °F 71% 30.20 in 10.0 mi WSW 3.5 mph - N/A   Overcast
8:58 AM 32.2 °F 25.8 °F 22.1 °F 66% 30.21 in 10.0 mi West 6.9 mph - N/A   Overcast
9:58 AM 35.4 °F 32.6 °F 23.5 °F 62% 30.21 in 10.0 mi WNW 3.5 mph - N/A   Overcast
10:58 AM 39.2 °F 37.0 °F 24.8 °F 56% 30.21 in 10.0 mi SSW 3.5 mph - N/A   Partly Cloudy
11:58 AM 40.5 °F - 23.7 °F 51% 30.19 in 10.0 mi Calm Calm - N/A   Partly Cloudy
12:58 PM 40.8 °F 38.8 °F 25.5 °F 55% 30.20 in 10.0 mi SE 3.5 mph - N/A   Overcast
1:58 PM 41.4 °F - 24.4 °F 51% 30.20 in 10.0 mi South 2.3 mph - N/A   Overcast
2:58 PM 43.2 °F 40.5 °F 29.5 °F 59% 30.21 in 10.0 mi NW 4.6 mph - N/A   Partly Cloudy
3:58 PM 39.9 °F 33.4 °F 31.3 °F 71% 30.26 in 10.0 mi NW 10.4 mph - N/A   Overcast
4:05 PM 39.2 °F 30.8 °F 32.0 °F 75% 30.15 in 10.0 mi NW 15.0 mph - N/A Rain Light Rain
4:24 PM 37.4 °F 29.3 °F 32.0 °F 81% 30.16 in 10.0 mi NW 12.7 mph - N/A   Mostly Cloudy
4:58 PM 36.7 °F 31.2 °F 32.0 °F 83% 30.28 in 10.0 mi NW 6.9 mph - 0.00 in   Scattered Clouds
5:58 PM 34.5 °F 28.6 °F 30.6 °F 85% 30.30 in 10.0 mi NW 6.9 mph - N/A   Partly Cloudy
6:58 PM 32.9 °F 25.9 °F 28.6 °F 84% 30.33 in 10.0 mi WSW 8.1 mph - N/A   Clear
7:58 PM 32.9 °F 23.7 °F 25.9 °F 75% 30.32 in 10.0 mi NNW 12.7 mph - N/A   Partly Cloudy
8:58 PM 33.6 °F 25.6 °F 27.9 °F 79% 30.35 in 10.0 mi NNW 10.4 mph - N/A   Clear
9:58 PM 36.3 °F 28.4 °F 28.0 °F 72% 30.35 in 10.0 mi NNW 11.5 mph - N/A   Clear
10:58 PM 32.5 °F 24.2 °F 25.7 °F 76% 30.38 in 10.0 mi NNW 10.4 mph - N/A   Clear
11:58 PM 27.0 °F 19.5 °F 22.3 °F 83% 30.39 in 10.0 mi West 6.9 mph - N/A   Clear